Location: University of Redlands
(34.0627°N, 117.1632°W)
Time: 21:23:34
(UTC-08:00)

Hubble Space Telescope - Visible Passes

Search period start: 22 November 2017 00:00
Search period end: 02 December 2017 00:00
Orbit: 537 x 541 km, 28.5° (Epoch: 22 November)

Date Brightness Start Highest point End Pass type
(mag) Time Alt. Az. Time Alt. Az. Time Alt. Az.
22 Nov 2.9 04:01:41 24° SE 04:01:41 24° SE 04:03:39 10° ESE visible
22 Nov 2.1 05:37:03 10° WSW 05:40:43 31° S 05:44:24 10° SE visible
23 Nov 3.3 03:52:07 18° ESE 03:52:07 18° ESE 03:53:25 10° ESE visible
23 Nov 2.2 05:27:28 13° WSW 05:30:27 28° SSW 05:34:01 10° SE visible
24 Nov 3.7 03:42:32 14° ESE 03:42:32 14° ESE 03:43:09 10° ESE visible
24 Nov 2.3 05:17:54 16° WSW 05:20:10 25° SSW 05:23:34 10° SE visible
25 Nov 2.5 05:08:19 18° SW 05:09:52 22° SSW 05:13:04 10° SE visible
26 Nov 2.6 04:58:45 17° SW 04:59:34 18° SSW 05:02:27 10° SSE visible
27 Nov 2.9 04:49:12 15° SSW 04:49:15 15° SSW 04:51:43 10° SSE visible
28 Nov 3.2 04:39:40 12° SSW 04:39:40 12° SSW 04:40:42 10° S visible
